OE9FWV Weather Reports


time (UTC)temp
F
wind
direction
speed
knots
gust
knots
rain 1hr
in
rain 24hr
in
rain mn
in
humidity
%
barometer
mb
20260507171355 58 189 0.9 1.7 0.00 0.05 0.00 74 1013.8
20260507170346 59 214 0.9 0.9 0.00 0.05 0.00 72 1013.9
20260507165340 59 60 0.9 1.7 0.00 0.05 0.00 77 1013.9
20260507164340 59 160 3.5 3.5 0.00 0.05 0.00 75 1013.9
20260507163332 58 85 0.0 3.5 0.00 0.05 0.00 78 1014.0
20260507162330 57 124 4.3 4.3 0.00 0.05 0.00 81 1014.0
20260507161327 57 155 3.5 4.3 0.00 0.05 0.00 82 1014.0
20260507160323 57 162 2.6 5.2 0.00 0.05 0.00 81 1014.0
20260507155319 57 166 7.0 7.0 0.00 0.05 0.00 82 1014.0
20260507152306 58 193 4.3 5.2 0.00 0.05 0.00 79 1013.8
20260507151300 58 160 5.2 8.7 0.00 0.05 0.00 79 1013.8
20260507150254 58 170 5.2 5.2 0.00 0.05 0.00 82 1013.8
20260507145250 58 199 5.2 7.8 0.00 0.05 0.00 83 1013.8
20260507143251 59 197 6.1 7.0 0.00 0.05 0.00 78 1013.8
20260507142250 60 132 7.8 8.7 0.00 0.05 0.00 73 1013.8
20260507141240 60 241 5.2 8.7 0.00 0.05 0.00 71 1013.8
20260507140237 60 193 7.8 7.8 0.00 0.05 0.00 71 1013.7
20260507135236 60 245 7.8 8.7 0.00 0.05 0.00 70 1013.8
20260507134232 60 180 11.3 11.3 0.00 0.05 0.00 68 1013.8
20260507131221 61 189 3.5 5.2 0.00 0.05 0.00 73 1013.8
20260507130217 60 124 6.1 8.7 0.00 0.05 0.00 70 1013.8
20260507122159 59 170 9.6 9.6 0.00 0.05 0.00 76 1013.7
20260507121155 59 207 8.7 8.7 0.00 0.05 0.00 74 1013.7
20260507115145 60 214 8.7 8.7 0.00 0.05 0.00 68 1013.7
20260507114142 64 4 8.7 10.4 0.00 0.05 0.00 63 1013.7
20260507113137 66 343 7.8 7.8 0.00 0.05 0.00 62 1013.7
20260507112133 66 327 7.8 9.6 0.00 0.05 0.00 61 1013.7
20260507111132 67 353 6.1 6.1 0.00 0.05 0.00 60 1013.6
20260507110133 66 322 5.2 8.7 0.00 0.05 0.00 62 1013.7
20260507105131 66 324 10.4 10.4 0.00 0.05 0.00 61 1013.7
20260507103122 65 322 4.3 6.1 0.00 0.05 0.00 60 1013.9
20260507101111 64 25 4.3 6.1 0.00 0.05 0.00 60 1014.0
20260507100111 64 317 1.7 3.5 0.00 0.05 0.00 63 1014.0
20260507094100 63 297 0.0 1.7 0.00 0.05 0.00 65 1014.1
20260507093050 62 296 3.5 4.3 0.00 0.05 0.00 67 1014.2
20260507092050 61 293 1.7 4.3 0.00 0.05 0.00 69 1014.1
20260507085037 57 292 0.0 0.9 0.00 0.05 0.00 77 1014.1
20260507084029 56 292 0.0 1.7 0.00 0.05 0.00 76 1014.2
20260507083026 56 292 1.7 1.7 0.00 0.05 0.00 79 1014.1
20260507081012 55 292 0.0 0.0 0.00 0.05 0.00 84 1014.2
20260507080009 54 292 2.6 2.6 0.00 0.05 0.00 85 1014.2
20260507075009 53 291 0.0 1.7 0.00 0.05 0.00 86 1014.1
20260507074004 53 291 0.0 1.7 0.00 0.05 0.00 87 1014.1
20260507071953 52 292 0.0 0.0 0.00 0.05 0.00 88 1014.2
20260507070953 52 292 0.0 0.0 0.00 0.05 0.00 89 1014.1
20260507065950 51 292 0.0 0.0 0.00 0.05 0.00 90 1014.1
20260507064944 51 292 0.0 0.0 0.00 0.05 0.00 90 1013.9
20260507063937 51 292 0.0 0.0 0.00 0.05 0.00 90 1013.8
20260507061937 50 292 0.9 2.6 0.00 0.05 0.00 91 1013.7
20260507060931 50 298 0.0 2.6 0.00 0.05 0.00 92 1013.7
20260507055930 49 318 2.6 2.6 0.00 0.05 0.00 93 1013.6
20260507054927 49 319 0.0 0.0 0.00 0.05 0.00 93 1013.5
20260507052916 49 319 0.0 2.6 0.00 0.05 0.00 93 1013.4
20260507051915 49 319 0.0 0.0 0.00 0.05 0.00 93 1013.2
20260507044905 49 319 0.0 0.0 0.00 0.05 0.00 93 1013.0
20260507043905 49 319 0.0 0.0 0.00 0.05 0.00 93 1012.8
20260507041857 48 319 0.0 0.0 0.00 0.05 0.00 93 1012.7
20260507040852 48 319 0.0 0.0 0.00 0.05 0.00 93 1012.4
20260507034846 48 319 0.0 0.0 0.00 0.05 0.00 93 1012.4
20260507033840 49 319 0.0 0.0 0.00 0.05 0.00 93 1012.3
20260507033059 49 319 0.9 1.7 0.00 0.05 0.00 93 1012.3
20260507032834 49 319 0.9 1.7 0.00 0.05 0.00 93 1012.3
20260507031832 48 319 0.0 0.0 0.00 0.05 0.00 92 1012.2
20260507030825 49 319 0.0 0.0 0.00 0.05 0.00 92 1012.1
20260507025821 49 319 0.0 0.0 0.00 0.05 0.00 93 1012.2
20260507022812 49 319 1.7 3.5 0.00 0.05 0.00 92 1012.0
20260507021804 49 329 2.6 3.5 0.00 0.05 0.00 92 1011.9
20260507015757 49 353 0.0 0.0 0.00 0.05 0.00 92 1011.7
20260507014754 49 353 0.9 1.7 0.00 0.05 0.00 92 1011.5
20260507013751 50 353 0.0 0.0 0.00 0.05 0.00 92 1011.5
20260507012751 50 353 0.0 0.0 0.00 0.05 0.00 92 1011.5
20260507011744 50 353 0.9 1.7 0.00 0.05 0.00 92 1011.5
20260507005740 50 353 0.0 0.0 0.00 0.05 0.00 91 1011.3
20260507004736 50 353 0.9 2.6 0.00 0.05 0.00 91 1011.2
20260507003733 50 353 0.9 1.7 0.00 0.05 0.00 91 1011.3
20260507002726 51 352 0.0 0.9 0.00 0.05 0.00 91 1011.2
20260507001725 51 352 0.0 0.0 0.00 0.04 0.00 91 1011.2
20260507000719 51 352 0.0 0.9 0.00 0.04 0.00 91 1011.2
20260506235904 51 352 0.0 0.0 0.00 0.04 0.00 90 1011.3
20260506235710 51 352 0.0 0.0 0.00 0.04 0.00 90 1011.3
20260506234703 51 352 0.0 0.0 0.00 0.03 0.00 90 1011.3
20260506233703 51 352 0.0 0.0 0.04 0.03 0.00 89 1011.4
20260506232703 51 352 0.0 0.0 0.17 0.03 0.00 89 1011.3
20260506230655 51 352 0.0 0.9 0.00 0.00 0.00 88 1011.3
20260506225652 51 353 1.7 1.7 0.00 0.00 0.00 88 1011.2
20260506224652 51 29 1.7 1.7 0.00 0.00 0.00 88 1011.2
20260506214634 51 30 0.0 0.0 0.00 0.00 0.00 86 1010.9
20260506213630 51 30 0.0 0.0 0.00 0.00 0.00 86 1010.8
20260506212627 51 30 0.0 0.0 0.00 0.00 0.00 86 1010.9
20260506211624 51 30 0.0 0.0 0.00 0.00 0.00 86 1010.9
20260506210622 52 30 0.0 0.0 0.00 0.00 0.00 85 1010.9
20260506204616 52 30 0.0 0.0 0.00 0.00 0.00 85 1010.7
20260506203613 52 30 0.0 0.0 0.00 0.00 0.00 85 1010.7
20260506202608 52 30 0.0 0.0 0.00 0.00 0.00 85 1010.7
20260506195556 52 30 0.0 0.0 0.00 0.00 0.00 85 1010.4
20260506194556 52 30 0.0 0.0 0.00 0.00 0.00 84 1010.2
20260506191541 52 30 0.0 0.0 0.00 0.00 0.00 81 1009.8
20260506190541 53 30 0.0 0.0 0.00 0.00 0.00 81 1009.8
20260506185541 53 30 0.0 0.0 0.00 0.00 0.00 81 1009.4
20260506184541 53 30 0.0 0.0 0.00 0.00 0.00 81 1009.4
20260506183535 53 30 0.0 0.0 0.00 0.00 0.00 81 1009.1
20260506182526 53 30 0.0 0.0 0.00 0.00 0.00 80 1009.0
20260506181521 54 30 0.0 0.0 0.00 0.00 0.00 80 1009.1
20260506180518 54 30 0.0 0.0 0.00 0.00 0.00 80 1008.8
20260506175514 54 30 0.0 0.0 0.00 0.00 0.00 80 1008.7
20260506174506 54 30 0.0 0.9 0.00 0.00 0.00 80 1008.8
20260506173506 53 30 0.0 1.7 0.00 0.00 0.00 80 1008.6